Location: Poughquag
(41.6090°N, 73.6820°W)
Time: 09:34:06
(UTC-05:00)

Vanguard 1 - Pass Details

Date: 02 December 2023
Orbit: 653 x 3826 km, 34.3° (Epoch: 25 February)

Event Time Altitude Azimuth Distance (km) Brightness Sun altitude
Rises 17:29:44 0° 224° (SW) 5,577 15.2 -11.8°
Reaches altitude 10° 17:32:57 10° 219° (SW) 4,931 14.6 -12.4°
Maximum altitude 17:47:47 51° 149° (SSE) 3,846 12.9 -15.1°
Enters shadow 18:04:24 20° 88° (E) 6,076 13.4 -18.1°
Drops below altitude 10° 18:09:20 10° 83° (E) 6,935 - -19.0°
Sets 18:14:56 0° 79° (E) 7,908 - -20.0°
